Regional Weather Roundup
Issued by NWS

Home | Current Version | Previous Version | Graphics & Text | Print | Product List | Glossary On
Versions: 1 2 3 4 5 6 7 8 9 10 11 12 13 14 15 16 17 18 19 20 21 22 23 24 25 26 27 28 29 30 31 32 33 34 35 36 37 38 39 40 41 42 43 44 45 46 47 48 49 50
817
ASUS45 KPSR 090610
RWRAZ

ARIZONA HOURLY REGIONAL WEATHER ROUNDUP
NATIONAL WEATHER SERVICE PHOENIX AZ
1100 PM MST MON FEB 08 2016

NOTE: FAIR INDICATES FEW OR NO CLOUDS BELOW 12,000 FEET WITH NO
SIGNIFICANT WEATHER AND/OR OBSTRUCTIONS TO VISIBILITY.

AZZ001>003-036-090700-
NORTHWEST ARIZONA

CITY           SKY/WX    TMP DP  RH WIND       PRES   REMARKS
BULLHEAD CITY  CLEAR     68  27  21 N25G37    30.24R
KINGMAN        CLEAR     47  24  40 E3        30.35R
6HR MIN TEMP:  46; 6HR MAX TEMP:  67;

$$

AZZ004>008-015-016-018-090700-
NORTH CENTRAL ARIZONA

CITY           SKY/WX    TMP DP  RH WIND       PRES   REMARKS
GRAND CANYON   CLEAR     27  21  78 CALM      30.49S
6HR MIN TEMP:  26; 6HR MAX TEMP:  51;

WILLIAMS       CLEAR     28  19  69 VRB5      30.50S WCI  23
PRESCOTT       CLEAR     38  21  50 SW5       30.38R WCI  34
6HR MIN TEMP:  38; 6HR MAX TEMP:  70;

FLAGSTAFF      CLEAR     38  19  46 NE13      30.46R WCI  30
6HR MIN TEMP:  38; 6HR MAX TEMP:  50;

PAYSON         CLEAR     54  16  22 E12       30.37S
PAGE           CLEAR     37  23  56 CALM      30.47S
6HR MIN TEMP:  36; 6HR MAX TEMP:  50;

$$

AZZ009>014-017-090700-
NORTHEAST ARIZONA

CITY           SKY/WX    TMP DP  RH WIND       PRES   REMARKS
WINSLOW        CLEAR     41  23  48 NW7       30.44S
6HR MIN TEMP:  37; 6HR MAX TEMP:  59;

SAINT JOHNS    PTCLDY    34  21  59 S7        30.42S WCI  28
6HR MIN TEMP:  33; 6HR MAX TEMP:  54;

WINDOW ROCK    CLEAR     28   0  29 S3        30.46R
6HR MIN TEMP:  28; 6HR MAX TEMP:  52;

SHOW LOW       CLEAR     32  18  55 CALM      30.46S
$$

AZZ023-090700-
GREATER PHOENIX AREA

CITY           SKY/WX    TMP DP  RH WIND       PRES   REMARKS
PHOENIX        CLEAR     66  28  24 E6        30.15R
6HR MIN TEMP:  65; 6HR MAX TEMP:  84;

BUCKEYE        CLEAR     59  27  29 NE5       30.17R
LUKE AFB       CLEAR     69  23  17 N13       30.14R
6HR MIN TEMP:  61; 6HR MAX TEMP:  81;

DEER VALLEY    CLEAR     67  21  17 NE7       30.17R
6HR MIN TEMP:  59; 6HR MAX TEMP:  81;

SCOTTSDALE     CLEAR     66  20  17 SW5       30.18R
6HR MIN TEMP:  65; 6HR MAX TEMP:  81;

MESA-GATEWAY   CLEAR     57  28  33 NE5       30.17R
$$

AZZ027-028-090700-
SOUTHWEST MARICOPA COUNTY AND PINAL COUNTY

CITY           SKY/WX    TMP DP  RH WIND       PRES   REMARKS
CASA GRANDE    CLEAR     61  23  23 E3        30.17R
6HR MIN TEMP:  57; 6HR MAX TEMP:  81;

GILA BEND      FAIR      53  28  37 SE7       30.13R
6HR MIN TEMP:  53; 6HR MAX TEMP:  81;

$$

AZZ503-504-507>509-090700-
SOUTHEAST ARIZONA

CITY           SKY/WX    TMP DP  RH WIND       PRES   REMARKS
TUCSON         CLEAR     58  20  22 SE5       30.21R
6HR MIN TEMP:  57; 6HR MAX TEMP:  80;

DAVIS-MONTHAN  CLEAR     56  21  25 SE9       30.19R
6HR MIN TEMP:  56; 6HR MAX TEMP:  78;

NOGALES        CLEAR     52  17  25 NE5       30.24R
6HR MIN TEMP:  51; 6HR MAX TEMP:  76;

SIERRA VISTA   PTCLDY    50  17  27 NE5       30.30R
6HR MIN TEMP:  49; 6HR MAX TEMP:  69;

DOUGLAS        CLEAR     43  17  35 W5        30.28R
6HR MIN TEMP:  43; 6HR MAX TEMP:  69;

SAFFORD        CLEAR     51  24  34 SE8       30.27R
6HR MIN TEMP:  48; 6HR MAX TEMP:  73;

$$

AZZ020-021-025-026-031-090700-
SOUTHWEST ARIZONA

CITY           SKY/WX    TMP DP  RH WIND       PRES   REMARKS
YUMA           CLEAR     70  22  16 N10       30.13S
6HR MIN TEMP:  70; 6HR MAX TEMP:  82;

$$

CAZ031-033-041-043-047-048-061-090700-
SOUTHERN CALIFORNIA

CITY           SKY/WX    TMP DP  RH WIND       PRES   REMARKS
DOWNTOWN L.A.  CLEAR     65  36  34 CALM      30.12R
6HR MIN TEMP:  65; 6HR MAX TEMP:  86;

L.A. AIRPORT   CLEAR     69  31  24 CALM      30.13R
6HR MIN TEMP:  69; 6HR MAX TEMP:  81;

SAN DIEGO      CLEAR     67  32  27 CALM      30.12R
6HR MIN TEMP:  66; 6HR MAX TEMP:  81;

BURBANK        CLEAR     65  24  21 W5        30.14S
6HR MIN TEMP:  64; 6HR MAX TEMP:  85;

ONTARIO        CLEAR     62  28  27 W5        30.16R
6HR MIN TEMP:  61; 6HR MAX TEMP:  84;

RIVERSIDE      CLEAR     66  24  20 SE3       30.18R
6HR MIN TEMP:  65; 6HR MAX TEMP:  82;

PALM SPRINGS   CLEAR     69  25  19 SW7       30.22S
6HR MIN TEMP:  69; 6HR MAX TEMP:  82;

EL CENTRO NAS  CLEAR     54  21  27 W8        30.17S
6HR MIN TEMP:  53; 6HR MAX TEMP:  83;

IMPERIAL       CLEAR     55  27  34 W7        30.15R
6HR MIN TEMP:  55; 6HR MAX TEMP:  82;

BLYTHE         CLEAR     64  24  21 N12       30.17S
6HR MIN TEMP:  64; 6HR MAX TEMP:  82;

NEEDLES        CLEAR     68  27  21 N16       30.23R
6HR MIN TEMP:  67; 6HR MAX TEMP:  77;

$$

NVZ020-UTZ003-090700-
SOUTHERN NEVADA-UTAH

CITY           SKY/WX    TMP DP  RH WIND       PRES   REMARKS
LAS VEGAS      CLEAR     60  28  29 CALM      30.33R
6HR MIN TEMP:  59; 6HR MAX TEMP:  72;

SALT LAKE CITY PTCLDY    29  25  85 W5        30.63S FOG     WCI  24
6HR MIN TEMP:  28; 6HR MAX TEMP:  38;

$$

NMZ009-TXZ055-090700-
NEW MEXICO-WEST TEXAS

CITY           SKY/WX    TMP DP  RH WIND       PRES   REMARKS
ALBUQUERQUE    CLOUDY    36  21  54 CALM      30.40S
6HR MIN TEMP:  36; 6HR MAX TEMP:  56;

EL PASO        CLEAR     44  14  29 NE6       30.35F
6HR MIN TEMP:  44; 6HR MAX TEMP:  61;

$$


........................KEY........................
SKY/WX - SKY CONDITION/WEATHER
TMP    - TEMPERATURE IN FAHRENHEIT
DP     - DEW POINT IN FAHRENHEIT
RH     - RELATIVE HUMIDITY IN PERCENT
WIND   - DIRECTION AND SPEED IN MILES PER HOUR (MPH)
VRB    - VARIABLE WIND DIRECTION
PRES   - MEAN SEA LEVEL PRESSURE IN INCHES OF MERCURY
         F - FALLING PRESSURE   R - RISING PRESSURE
         S - STEADY PRESSURE
VSB    - VISIBILITY IN MILES
HX     - HEAT INDEX IN FAHRENHEIT
WCI    - WIND CHILL INDEX IN FAHRENHEIT
TC     - TEMPERATURE IN CELSIUS WHICH IS ALSO KNOWN AS
         TEMPERATURE IN CENTIGRADE
AFB    - AIR FORCE BASE
         LUKE AFB IS LUKE AIR FORCE BASE
         DAVIS-MONTHAN IS DAVIS-MONTHAN AIR FORCE BASE
NAS    - NAVAL AIR STATION
         EL CENTRO NAS IS EL CENTRO NAVAL AIR STATION
N/A    - NOT AVAILABLE





USA.gov is the U.S. government's official web portal to all federal, state and local government web resources and services.